TimeCST,TemperatureF,Dew PointF,Humidity,Sea Level PressureIn,VisibilityMPH,Wind Direction,Wind SpeedMPH,Gust SpeedMPH,PrecipitationIn,Events,Conditions,WindDirDegrees,DateUTC
12:15 AM,41.0,37.4,87,30.09,10.0,West,3.5,-,N/A,,Clear,260,2013-01-20 06:15:00
12:35 AM,42.8,37.4,81,30.09,10.0,West,3.5,-,N/A,,Clear,280,2013-01-20 06:35:00
12:55 AM,42.8,37.4,81,30.10,10.0,West,3.5,-,N/A,,Clear,270,2013-01-20 06:55:00
1:15 AM,44.6,35.6,71,30.11,10.0,WNW,3.5,-,N/A,,Clear,300,2013-01-20 07:15:00
1:35 AM,44.6,35.6,71,30.12,10.0,WNW,4.6,-,N/A,,Clear,300,2013-01-20 07:35:00
1:55 AM,44.6,33.8,66,30.13,10.0,NW,8.1,-,N/A,,Clear,310,2013-01-20 07:55:00
2:15 AM,42.8,33.8,70,30.14,10.0,NW,5.8,-,N/A,,Clear,320,2013-01-20 08:15:00
2:35 AM,42.8,33.8,70,30.15,10.0,NNW,5.8,-,N/A,,Clear,340,2013-01-20 08:35:00
2:55 AM,41.0,33.8,76,30.16,10.0,NW,9.2,-,N/A,,Clear,320,2013-01-20 08:55:00
3:15 AM,41.0,32.0,70,30.17,10.0,NNW,4.6,-,N/A,,Clear,330,2013-01-20 09:15:00
3:35 AM,39.2,30.2,70,30.17,10.0,NNW,6.9,-,N/A,,Clear,330,2013-01-20 09:35:00
3:55 AM,39.2,30.2,70,30.17,10.0,NNW,9.2,-,N/A,,Clear,340,2013-01-20 09:55:00
4:15 AM,39.2,30.2,70,30.18,10.0,NNW,5.8,-,N/A,,Clear,330,2013-01-20 10:15:00
4:35 AM,37.4,28.4,70,30.19,10.0,NNW,8.1,-,N/A,,Clear,330,2013-01-20 10:35:00
4:55 AM,37.4,28.4,70,30.20,10.0,NNW,12.7,18.4,N/A,,Clear,340,2013-01-20 10:55:00
5:15 AM,33.8,28.4,81,30.23,10.0,North,9.2,-,N/A,,Clear,350,2013-01-20 11:15:00
5:35 AM,32.0,26.6,80,30.24,10.0,NNW,8.1,-,N/A,,Clear,340,2013-01-20 11:35:00
5:55 AM,32.0,24.8,75,30.25,10.0,NNW,10.4,18.4,N/A,,Clear,340,2013-01-20 11:55:00
6:15 AM,30.2,24.8,80,30.26,10.0,North,9.2,-,N/A,,Clear,350,2013-01-20 12:15:00
6:35 AM,30.2,24.8,80,30.26,10.0,North,8.1,-,N/A,,Clear,350,2013-01-20 12:35:00
6:55 AM,30.2,19.4,64,30.27,10.0,North,8.1,-,N/A,,Clear,350,2013-01-20 12:55:00
7:15 AM,28.4,15.8,59,30.28,10.0,NNW,5.8,-,N/A,,Clear,340,2013-01-20 13:15:00
7:35 AM,28.4,12.2,51,30.29,10.0,North,11.5,17.3,N/A,,Clear,350,2013-01-20 13:35:00
7:55 AM,28.4,14.0,55,30.29,10.0,NNW,6.9,-,N/A,,Clear,340,2013-01-20 13:55:00
8:15 AM,28.4,15.8,59,30.30,10.0,North,8.1,-,N/A,,Clear,360,2013-01-20 14:15:00
8:35 AM,28.4,15.8,59,30.31,10.0,North,8.1,-,N/A,,Clear,350,2013-01-20 14:35:00
8:55 AM,30.2,17.6,60,30.31,10.0,North,13.8,-,N/A,,Clear,350,2013-01-20 14:55:00
9:15 AM,30.2,17.6,60,30.32,10.0,North,8.1,-,N/A,,Clear,350,2013-01-20 15:15:00
9:35 AM,30.2,17.6,60,30.32,10.0,North,6.9,-,N/A,,Clear,360,2013-01-20 15:35:00
9:55 AM,30.2,15.8,55,30.33,10.0,North,8.1,-,N/A,,Clear,10,2013-01-20 15:55:00
10:15 AM,30.2,15.8,55,30.34,10.0,North,5.8,-,N/A,,Clear,350,2013-01-20 16:15:00
10:35 AM,30.2,14.0,51,30.34,10.0,NNW,5.8,-,N/A,,Clear,340,2013-01-20 16:35:00
10:55 AM,30.2,15.8,55,30.32,10.0,Calm,Calm,-,N/A,,Clear,0,2013-01-20 16:55:00
11:15 AM,32.0,14.0,48,30.32,10.0,North,6.9,-,N/A,,Clear,10,2013-01-20 17:15:00
11:35 AM,32.0,14.0,48,30.31,10.0,NNE,5.8,-,N/A,,Clear,30,2013-01-20 17:35:00
11:55 AM,32.0,12.2,44,30.29,10.0,NNE,6.9,-,N/A,,Clear,20,2013-01-20 17:55:00
12:15 PM,33.8,12.2,41,30.29,10.0,North,4.6,-,N/A,,Clear,360,2013-01-20 18:15:00
12:35 PM,33.8,14.0,44,30.27,10.0,NNE,6.9,-,N/A,,Clear,30,2013-01-20 18:35:00
12:55 PM,33.8,12.2,41,30.26,10.0,NNE,4.6,-,N/A,,Clear,30,2013-01-20 18:55:00
1:15 PM,35.6,12.2,38,30.26,10.0,North,4.6,-,N/A,,Clear,10,2013-01-20 19:15:00
1:35 PM,35.6,12.2,38,30.26,10.0,NW,5.8,-,N/A,,Clear,320,2013-01-20 19:35:00
1:55 PM,35.6,12.2,38,30.25,10.0,NNW,4.6,-,N/A,,Clear,340,2013-01-20 19:55:00
2:15 PM,35.6,12.2,38,30.26,10.0,WSW,3.5,-,N/A,,Clear,250,2013-01-20 20:15:00
2:35 PM,35.6,14.0,41,30.26,10.0,North,5.8,-,N/A,,Clear,360,2013-01-20 20:35:00
2:55 PM,37.4,15.8,41,30.27,10.0,North,6.9,-,N/A,,Clear,360,2013-01-20 20:55:00
3:15 PM,35.6,15.8,44,30.28,10.0,North,5.8,-,N/A,,Clear,350,2013-01-20 21:15:00
3:35 PM,35.6,12.2,38,30.28,10.0,North,6.9,-,N/A,,Clear,350,2013-01-20 21:35:00
3:55 PM,35.6,15.8,44,30.29,10.0,NNW,8.1,-,N/A,,Scattered Clouds,340,2013-01-20 21:55:00
4:15 PM,33.8,15.8,48,30.29,10.0,NNW,6.9,-,N/A,,Mostly Cloudy,340,2013-01-20 22:15:00
4:35 PM,33.8,15.8,48,30.27,10.0,North,6.9,-,N/A,,Mostly Cloudy,360,2013-01-20 22:35:00
4:55 PM,32.0,17.6,55,30.26,10.0,North,8.1,-,N/A,,Scattered Clouds,360,2013-01-20 22:55:00
5:15 PM,30.2,17.6,60,30.27,10.0,North,8.1,-,N/A,,Scattered Clouds,360,2013-01-20 23:15:00
5:35 PM,30.2,15.8,55,30.29,10.0,North,6.9,-,N/A,,Scattered Clouds,350,2013-01-20 23:35:00
5:55 PM,30.2,15.8,55,30.28,10.0,North,5.8,-,N/A,,Scattered Clouds,350,2013-01-20 23:55:00
6:15 PM,28.4,15.8,59,30.28,10.0,North,5.8,-,N/A,,Mostly Cloudy,350,2013-01-21 00:15:00
6:35 PM,28.4,17.6,64,30.28,10.0,North,5.8,-,N/A,,Overcast,360,2013-01-21 00:35:00
6:55 PM,28.4,17.6,64,30.28,10.0,North,4.6,-,N/A,,Scattered Clouds,350,2013-01-21 00:55:00
7:15 PM,26.6,17.6,69,30.27,10.0,North,3.5,-,N/A,,Clear,360,2013-01-21 01:15:00
7:35 PM,26.6,17.6,69,30.27,10.0,North,3.5,-,N/A,,Clear,10,2013-01-21 01:35:00
7:55 PM,26.6,15.8,64,30.27,10.0,Calm,Calm,-,N/A,,Clear,0,2013-01-21 01:55:00
8:15 PM,26.6,15.8,64,30.27,10.0,Calm,Calm,-,N/A,,Clear,0,2013-01-21 02:15:00
8:35 PM,26.6,15.8,64,30.27,10.0,Calm,Calm,-,N/A,,Clear,0,2013-01-21 02:35:00
8:55 PM,26.6,17.6,69,30.26,10.0,North,3.5,-,N/A,,Scattered Clouds,350,2013-01-21 02:55:00
9:15 PM,26.6,17.6,69,30.27,10.0,Calm,Calm,-,N/A,,Clear,0,2013-01-21 03:15:00
9:35 PM,26.6,17.6,69,30.26,10.0,Calm,Calm,-,N/A,,Scattered Clouds,0,2013-01-21 03:35:00
9:55 PM,26.6,17.6,69,30.27,10.0,North,3.5,-,N/A,,Mostly Cloudy,350,2013-01-21 03:55:00
10:15 PM,26.6,17.6,69,30.26,10.0,North,3.5,-,N/A,,Overcast,350,2013-01-21 04:15:00
10:35 PM,26.6,17.6,69,30.26,10.0,North,4.6,-,N/A,,Scattered Clouds,350,2013-01-21 04:35:00
10:55 PM,26.6,17.6,69,30.26,10.0,North,4.6,-,N/A,,Mostly Cloudy,350,2013-01-21 04:55:00
11:15 PM,26.6,17.6,69,30.25,10.0,North,5.8,-,N/A,,Overcast,360,2013-01-21 05:15:00
11:35 PM,24.8,17.6,74,30.25,10.0,North,4.6,-,N/A,,Scattered Clouds,350,2013-01-21 05:35:00
11:55 PM,24.8,17.6,74,30.25,10.0,North,4.6,-,N/A,,Scattered Clouds,350,2013-01-21 05:55:00